Other Public Products
Issued by NWS Grand Forks, ND

Home | Current Version | Previous Version | Text Only | Print | Product List | Glossary Off
Versions: 1 2 3 4 5 6 7 8 9 10 11 12 13 14 15 16 17 18 19 20 21 22 23 24 25 26 27 28 29 30 31 32 33 34 35 36 37 38 39 40 41 42 43 44 45 46 47 48 49 50

000
FPUS83 KFGF 212131
OPUFGF
PRAIRIE TO PINES WEATHER ROUNDUP
NATIONAL WEATHER SERVICE EASTERN NORTH DAKOTA/GRAND FORKS ND
300 PM CST FRI NOV 21 2014

 **SATELLITE DATA USED TO AUGMENT SKY COVER AT AUTOMATED STATIONS**
 *****  WEATHER ACROSS EASTERN NORTH DAKOTA  *****

CITY           SKY/WX    TMP DP  RH WIND       PRES   REMARKS
GRAND FORKS    PTSUNNY   35  23  61 S21       29.66F WCI  24
GRAND FORKS AF PTSUNNY   36  23  58 S21       29.64F
GRAND CITY NWS   N/A     32 N/A N/A S24         N/A  WCI  19
BUXTON           N/A     34  24  67 S14G25      N/A  WCI  25
DEVILS LAKE    SUNNY     43  27  52 SW17      29.56S
FARGO          PTSUNNY   34  23  64 S20       29.76S WCI  23
WAHPETON ARPT  MOCLDY    30  25  80 S14       29.80F WCI  20
$$

 *****  WEATHER ACROSS CENTRAL AND WESTERN NORTH DAKOTA  *****

CITY           SKY/WX    TMP DP  RH WIND       PRES   REMARKS
JAMESTOWN      PTSUNNY   39  26  59 SW12      29.68S
BISMARCK       SUNNY     47  31  53 SW8       29.71R
MINOT          SUNNY     49  27  42 SW22G38   29.56R
MINOT AFB      SUNNY     49  29  47 W25G31    29.55R
GARRISON         N/A     47  30  51 W18       29.62S
WILLISTON      SUNNY     46  30  53 W20       29.64R
DICKINSON      SUNNY     43  28  55 W13       29.69R
HETTINGER      MOSUNNY   42  29  59 W14       29.75S
$$

 *****  OTHER OBSERVATIONS NORTHEAST NORTH DAKOTA  *****

CITY           SKY/WX    TMP DP  RH WIND       PRES   REMARKS
WALHALLA         N/A     45  28  53 S16G24    29.50F
LANGDON        FAIR      41  32  70 SW21G29   29.49F
CAVALIER       FAIR      41  27  56 S12       29.54S
GRAFTON        FAIR      37  25  60 S22G29    29.58F
CANDO          FAIR      46  28  49 SW20G26   29.52F
FORT TOTTEN      N/A     44  29  55 SW13      29.95S
ROLLA          FAIR      46  28  49 W24G37    29.49R
RUGBY          FAIR      48  30  49 W24G30    29.54R
 ***** THE ABOVE OBSERVATIONS ARE NON NWS ARE NOT QUALITY
        CONTROLLED AND MAY MIS-REPORT RAIN FOR SNOW...
$$

 *****  OTHER OBSERVATIONS SOUTHEAST NORTH DAKOTA *****

CITY           SKY/WX    TMP DP  RH WIND       PRES   REMARKS
COOPERSTOWN    NOT AVBL
VALLEY CITY    MOCLDY    32  27  80 S15       29.69F WCI  22
OAKES            N/A     30  27  86 S20       29.75F WCI  18
GWINNER        CLEAR     32  27  80 SW18G25   29.76S WCI  20
BUFFALO        NOT AVBL
WYNDMERE         N/A     34  27  75 S10         N/A
 ***** THE ABOVE OBSERVATIONS ARE NON NWS ARE NOT QUALITY
       CONTROLLED AND MAY MIS-REPORT RAIN FOR SNOW...
$$

  *****  WEATHER ACROSS NORTHERN MINNESOTA  *****

CITY           SKY/WX    TMP DP  RH WIND       PRES   REMARKS
FLAG ISLAND    CLOUDY    28  21  74 S18G26    29.59F WCI  16
WARROAD        CLOUDY    28  23  80 S14G26    29.62F WCI  17
ROSEAU         PTSUNNY   30  23  74 S23G31    29.61F WCI  17
HALLOCK        PTSUNNY   34  25  69 S24       29.58F WCI  21
THF RVR FALLS  MOSUNNY   28  25  86 S17G26    29.68F WCI  16
HALSTAD          N/A     33  23  68 S20         N/A  WCI  21
FOSSTON        MOSUNNY   27  19  74 S21G28    29.72S WCI  13
BAUDETTE       CLOUDY    30  19  63 S15G25    29.65F WCI  19
WASKISH        PTSUNNY   30  21  69 S9G20     29.70S WCI  22
CROOKSTON      PTSUNNY   30  25  80 S24G30    29.70F WCI  16
$$
  *****  WEATHER ACROSS CENTRAL AND WEST MINNESOTA  *****

CITY           SKY/WX    TMP DP  RH WIND       PRES   REMARKS
BEMIDJI        MOSUNNY   29  19  67 S14       29.73F WCI  18
PARK RAPIDS    MOSUNNY   28  20  71 S13G23    29.80S WCI  17
WADENA         MOSUNNY   27  21  80 S15       29.82F WCI  15
DETROIT LAKES  MOSUNNY   30  23  74 S15       29.78F WCI  19
MOORHEAD       PTSUNNY   32  25  74 S20       29.77S WCI  20
FERGUS FALLS   PTSUNNY   28  21  74 S20       29.84F WCI  15
ELBOW LAKE       N/A     29  24  82 S16       29.82F WCI  17
MORRIS MN      PTSUNNY   34  27  75 S14       29.84S WCI  24
STAPLES        PTSUNNY   27  19  74 S14       29.84F WCI  15
WHEATON        PTSUNNY   30  25  80 SE10      29.83F WCI  21
$$
  *****  WEATHER ELSEWHERE ACROSS MINNESOTA  *****

CITY           SKY/WX    TMP DP  RH WIND       PRES   REMARKS
DULUTH         SUNNY     28  15  58 SW20      29.87F WCI  15
INTRNTL FALLS  PTSUNNY   30  17  58 S12G23    29.68F WCI  20
ELY            MOSUNNY   28  18  64 SW18G28   29.76F WCI  16
CLOQUET        SUNNY     27  16  63 SW21G30   29.88F WCI  13
BRAINERD       PTSUNNY   26  18  71 S17G24    29.88F WCI  13
HIBBING        SUNNY     30  17  58 S17G28    29.81F WCI  18
ALEXANDRIA     CLOUDY    29  22  75 S20       29.86S WCI  16
SAINT CLOUD    CLOUDY    29  19  66 S21       29.94F WCI  16
MINNEAPOLIS    CLOUDY    26  16  65 S17       30.03F WCI  13
$$

  *****  WEATHER ACROSS SOUTH DAKOTA  *****

CITY           SKY/WX    TMP DP  RH WIND       PRES   REMARKS
SIOUX FALLS    CLOUDY    35  26  69 S20       29.90F WCI  24
BROOKINGS      NOT AVBL
WATERTOWN      PTSUNNY   33  26  75 S16G26    29.82F WCI  23
HURON          PTSUNNY   37  28  70 S13       29.85S
SISSETON         N/A     34  25  69 S8        29.80R
ABERDEEN       CLOUDY    32  25  75 S14       29.80F WCI  22
MITCHELL       PTSUNNY   41  31  67 S13       29.87S
PIERRE         PTSUNNY   34  25  69 SW5       29.80F
MOBRIDGE       CLOUDY    39  30  70 SE6       29.74S
RAPID CITY     MOSUNNY   46  30  53 SE5       29.81S
$$

  *****  SOME WEATHER IN NEARBY STATES *****

CITY           SKY/WX    TMP DP  RH WIND       PRES   REMARKS
GLASGOW MT     SUNNY     43  30  60 W10       29.68S
GREAT FALLS MT MOSUNNY   46  27  47 SW26G32   29.74S
CHEYENNE WY    SUNNY     51  15  23 W16       29.91F
SCOTTSBLUFF NE PTSUNNY   54  22  28 W10       29.86F
OMAHA NE       PTSUNNY   39  25  57 S12       30.08F
DES MOINES IA  CLOUDY    38  23  55 S14       30.14F
DAVENPORT IA   SUNNY     34   4  28 S15       30.26F WCI  24
CHICAGO IL     MOSUNNY   33   1  25 S13       30.33F WCI  24
EAU CLAIRE WI  MOSUNNY   24   9  52 S14       30.10F WCI  12
LA CROSSE WI   MOSUNNY   29   9  43 S15       30.18F WCI  18
$$

  *****  SOME NATIONAL WEATHER *****

CITY           SKY/WX    TMP DP  RH WIND       PRES   REMARKS
LA GUARDIA NY  PTCLDY    36  12  37 NW18G25   30.37R
RALEIGH NC     SUNNY     46  11  24 VRB7      30.46R
ATLANTA GA     SUNNY     63  35  35 VRB6      30.34F
NEW ORLEANS LA MOSUNNY   67  53  61 E14       30.24S
OKLAHOMA CITY  PTSUNNY   66  52  60 S15       30.00S
ALBUQUERQUE NM CLOUDY    52  15  23 CALM      30.01F
SALT LAKE CITY SUNNY     49  24  37 NW7       30.01F
LOS ANGELES CA MOSUNNY   67  47  48 W12       29.95F
BOISE ID       PTSUNNY   35  27  72 SW5       30.00F HAZE
SEATTLE WA     LGT RAIN  51  46  83 SE12      29.56F
$$

*** WEATHER ACROSS MANITOBA...SASKATCHEWAN AND ONTARIO ***
                ***ONTARIO***

CITY           SKY/WX    TMP DP  RH WIND       PRES   REMARKS
GERALDTON      CLOUDY    25  18  74 S20G26    29.74F WCI  11
THUNDER BAY    CLOUDY    27  16  63 SW18G30   29.85F WCI  13
SIOUX LOOKOUT  CLOUDY    23  16  74 SW13G23   29.59F WCI  11
TORONTO        PTCLDY    25  10  54 W17       30.40R WCI  11
BIG TROUT LK   LGT SNOW  12  10  92 S12       29.47F WCI  -2
PICKLE LAKE    FLURRIES  18  12  79 S12G18    29.53F WCI   5
DRYDEN         PTCLDY    25  18  74 SW16G26   29.59F WCI  12
KENORA         FLURRIES  27  19  74 S17G25    29.57F WCI  14
$$
                *** MANITOBA***

CITY           SKY/WX    TMP DP  RH WIND       PRES   REMARKS
BRANDON        MOSUNNY   45  28  53 W24G32    29.45S
DAUPHIN        NOT AVBL
ISLAND LAKE    LGT SNOW  18  16  93 SE5       29.38  WCI  11
PILOT MOUND      N/A     45  32  61 SW14        N/A
THE PAS        CLOUDY    27  25  93 NW14      29.41R WCI  15
THOMPSON       FLURRIES  14  10  85 N5        29.37R WCI   6
WINNIPEG       MOSUNNY   28  21  74 S28G33    29.49F WCI  13
LYNN LAKE      FLURRIES  10   9  92 N10       29.42R WCI  -3
CHURCHILL      LGT SNOW   0  -4  85 W3        29.57S
GILLAM         LGT SNOW   7   3  85 E5        29.42S WCI  -2
$$
                ***SASKATCHEWAN***

CITY           SKY/WX    TMP DP  RH WIND       PRES   REMARKS
ESTEVAN        CLOUDY    45  34  65 W16G26    29.55R
KINDERSLEY     PTSUNNY   39  34  81 SW6       29.54S
LLOYDMINSTER   LGT RAIN  36  34  93 N8        29.52R FOG
PRINCE ALBERT  PTSUNNY   34  28  80 N8        29.50R
REGINA         PTSUNNY   45  36  70 W22       29.52S
YORKTON        LGT RAIN  37  34  87 W15       29.45R


USA.gov is the U.S. government's official web portal to all federal, state and local government web resources and services.